CFG2PC LGPZ-EDDS

Flight info

Callsign CFG2PC
Flight time 2h 5m
Altitude 34000
Route MALED A14 KRK UL53 OLGAT DCT LUMAR DCT AIOSA DCT SAL DCT NTL DCT NAKIT DCT PEVAL DCT MOBDO DCT SOTOV P66 KPT DCT PELOG T126 REUTL REUTL1W
Aircraft A321/M-SDE3FGHIRWY/LB1

Departure

Time 2026-05-07 19:21
Airport Aktion National Airport (LGPZ)

Arrival

Time 2026-05-07 21:27
Airport Stuttgart Airport (EDDS)
Time Latitude Longitude Altitude Speed Heading
2026-05-07 18:50 38.93019 20.77243 0 ft 0 kts 338°
2026-05-07 19:11 38.93018 20.77244 15 ft 2 kts 338°
2026-05-07 19:11 38.92995 20.77255 16 ft 4 kts 334°
2026-05-07 19:11 38.92973 20.77273 16 ft 4 kts 316°
2026-05-07 19:11 38.92957 20.77299 17 ft 4 kts 284°
2026-05-07 19:12 38.92957 20.77324 17 ft 1 kts 248°
2026-05-07 19:12 38.92958 20.77329 17 ft 0 kts 248°
2026-05-07 19:14 38.92950 20.77303 14 ft 7 kts 248°
2026-05-07 19:14 38.92921 20.77216 15 ft 11 kts 239°
2026-05-07 19:15 38.92851 20.77222 16 ft 13 kts 158°
2026-05-07 19:15 38.92774 20.77172 14 ft 18 kts 248°
2026-05-07 19:15 38.92703 20.77142 14 ft 11 kts 159°
2026-05-07 19:15 38.92615 20.77128 13 ft 16 kts 237°
2026-05-07 19:16 38.92563 20.76973 14 ft 22 kts 249°
2026-05-07 19:16 38.92503 20.76769 17 ft 27 kts 248°
2026-05-07 19:16 38.92422 20.76520 13 ft 33 kts 246°
2026-05-07 19:16 38.92328 20.76222 12 ft 39 kts 248°
2026-05-07 19:17 38.92223 20.75889 15 ft 41 kts 248°
2026-05-07 19:17 38.92122 20.75567 18 ft 35 kts 249°
2026-05-07 19:17 38.92081 20.75437 20 ft 4 kts 247°
2026-05-07 19:17 38.92070 20.75405 19 ft 1 kts 247°
2026-05-07 19:18 38.92057 20.75363 21 ft 10 kts 247°
2026-05-07 19:18 38.92022 20.75255 17 ft 17 kts 248°
2026-05-07 19:18 38.91975 20.75108 14 ft 9 kts 247°
2026-05-07 19:18 38.91966 20.75081 14 ft 1 kts 247°
2026-05-07 19:19 38.91961 20.75042 13 ft 6 kts 282°
2026-05-07 19:19 38.92019 20.74994 14 ft 13 kts 336°
2026-05-07 19:19 38.92067 20.74989 15 ft 6 kts 48°
2026-05-07 19:19 38.92107 20.75063 16 ft 11 kts 63°
2026-05-07 19:20 38.92115 20.75085 17 ft 0 kts 68°
2026-05-07 19:20 38.92131 20.75140 18 ft 31 kts 68°
2026-05-07 19:21 38.92302 20.75685 21 ft 98 kts 68°
2026-05-07 19:21 38.92627 20.76722 23 ft 149 kts 68°
2026-05-07 19:21 38.93055 20.78072 286 ft 169 kts 67°
2026-05-07 19:21 38.93530 20.79479 841 ft 174 kts 68°
2026-05-07 19:22 38.94023 20.80894 1430 ft 172 kts 69°
2026-05-07 19:22 38.94604 20.82217 1984 ft 171 kts 52°
2026-05-07 19:22 38.95566 20.83111 2484 ft 174 kts 25°
2026-05-07 19:22 38.96774 20.83344 2918 ft 180 kts 354°
2026-05-07 19:23 38.97925 20.82794 3338 ft 181 kts 321°
2026-05-07 19:23 38.98811 20.81645 3738 ft 183 kts 303°
2026-05-07 19:23 38.99537 20.80264 4079 ft 189 kts 296°
2026-05-07 19:23 39.00158 20.78759 4465 ft 192 kts 290°
2026-05-07 19:24 39.00689 20.77183 4914 ft 192 kts 288°
2026-05-07 19:24 39.01181 20.75590 5310 ft 193 kts 285°
2026-05-07 19:24 39.01640 20.73959 5714 ft 195 kts 284°
2026-05-07 19:24 39.02088 20.72301 6182 ft 197 kts 283°
2026-05-07 19:25 39.02666 20.70688 6613 ft 200 kts 294°
2026-05-07 19:25 39.03374 20.69153 7039 ft 199 kts 296°
2026-05-07 19:25 39.04098 20.67595 7266 ft 210 kts 296°
2026-05-07 19:25 39.04902 20.65913 7359 ft 233 kts 297°
2026-05-07 19:26 39.05797 20.64060 7525 ft 256 kts 297°
2026-05-07 19:26 39.06781 20.62025 7737 ft 279 kts 297°
2026-05-07 19:26 39.07835 20.59853 8207 ft 289 kts 298°
2026-05-07 19:26 39.08912 20.57645 8896 ft 292 kts 297°
2026-05-07 19:27 39.09998 20.55420 9624 ft 294 kts 297°
2026-05-07 19:27 39.11087 20.53178 10278 ft 299 kts 297°
2026-05-07 19:27 39.12223 20.50822 10437 ft 321 kts 297°
2026-05-07 19:27 39.13437 20.48297 10571 ft 341 kts 297°
2026-05-07 19:28 39.14709 20.45659 11048 ft 349 kts 297°
2026-05-07 19:28 39.15996 20.42998 11701 ft 351 kts 297°
2026-05-07 19:28 39.17273 20.40360 12379 ft 352 kts 297°
2026-05-07 19:28 39.18568 20.37675 13081 ft 353 kts 297°
2026-05-07 19:29 39.19881 20.34946 13795 ft 354 kts 297°
2026-05-07 19:29 39.21171 20.32280 14399 ft 357 kts 299°
2026-05-07 19:29 39.22745 20.29772 14968 ft 364 kts 310°
2026-05-07 19:29 39.24685 20.27624 15543 ft 370 kts 317°
2026-05-07 19:30 39.26705 20.25543 16114 ft 372 kts 317°
2026-05-07 19:30 39.28740 20.23453 16680 ft 375 kts 317°
2026-05-07 19:30 39.30785 20.21350 17254 ft 377 kts 317°
2026-05-07 19:30 39.32845 20.19227 17801 ft 379 kts 317°
2026-05-07 19:31 39.34912 20.17092 18350 ft 382 kts 317°
2026-05-07 19:31 39.36621 20.15325 18729 ft 383 kts 317°
2026-05-07 19:31 39.38687 20.13186 19186 ft 385 kts 317°
2026-05-07 19:31 39.40785 20.11015 19662 ft 387 kts 317°
2026-05-07 19:32 39.42176 20.09575 19969 ft 388 kts 317°
2026-05-07 19:32 39.44271 20.07373 20454 ft 388 kts 314°
2026-05-07 19:32 39.46192 20.04923 20926 ft 388 kts 310°
2026-05-07 19:32 39.48086 20.02426 21390 ft 389 kts 310°
2026-05-07 19:33 39.49990 19.99911 21848 ft 391 kts 311°
2026-05-07 19:33 39.51903 19.97379 22302 ft 393 kts 311°
2026-05-07 19:33 39.53821 19.94841 22746 ft 395 kts 311°
2026-05-07 19:33 39.55749 19.92292 23185 ft 396 kts 311°
2026-05-07 19:34 39.57660 19.89764 23624 ft 398 kts 311°
2026-05-07 19:34 39.59601 19.87195 24000 ft 400 kts 311°
2026-05-07 19:34 39.61549 19.84614 24374 ft 401 kts 311°
2026-05-07 19:34 39.63502 19.82023 24751 ft 402 kts 310°
2026-05-07 19:35 39.65457 19.79423 25122 ft 403 kts 310°
2026-05-07 19:35 39.67420 19.76817 25505 ft 404 kts 310°
2026-05-07 19:35 39.69387 19.74206 25868 ft 405 kts 310°
2026-05-07 19:35 39.71356 19.71589 26233 ft 406 kts 310°
2026-05-07 19:36 39.73332 19.68960 26587 ft 407 kts 310°
2026-05-07 19:36 39.75311 19.66324 26951 ft 408 kts 309°
2026-05-07 19:36 39.77295 19.63675 27307 ft 409 kts 309°
2026-05-07 19:36 39.79283 19.61020 27634 ft 410 kts 309°
2026-05-07 19:37 39.81277 19.58355 27962 ft 411 kts 309°
2026-05-07 19:37 39.83276 19.55685 28277 ft 413 kts 309°
2026-05-07 19:37 39.85283 19.52999 28588 ft 414 kts 309°
2026-05-07 19:37 39.87291 19.50309 28881 ft 415 kts 309°
2026-05-07 19:38 39.89302 19.47608 29174 ft 416 kts 309°
2026-05-07 19:38 39.91315 19.44896 29463 ft 417 kts 309°
2026-05-07 19:38 39.93336 19.42171 29746 ft 419 kts 309°
2026-05-07 19:38 39.95363 19.39439 30030 ft 420 kts 308°
2026-05-07 19:39 39.97398 19.36697 30305 ft 421 kts 308°
2026-05-07 19:39 39.99428 19.33966 30657 ft 418 kts 308°
2026-05-07 19:39 40.01448 19.31246 31042 ft 416 kts 308°
2026-05-07 19:39 40.03454 19.28541 31422 ft 413 kts 308°
2026-05-07 19:40 40.05447 19.25851 31825 ft 411 kts 308°
2026-05-07 19:40 40.07426 19.23177 32224 ft 408 kts 307°
2026-05-07 19:40 40.09389 19.20522 32621 ft 405 kts 307°
2026-05-07 19:40 40.11338 19.17885 33021 ft 402 kts 307°
2026-05-07 19:41 40.13272 19.15262 33430 ft 399 kts 306°
2026-05-07 19:41 40.15189 19.12656 33847 ft 396 kts 306°
2026-05-07 19:41 40.17094 19.10063 34030 ft 393 kts 306°
2026-05-07 19:41 40.18950 19.07543 34056 ft 388 kts 306°
2026-05-07 19:42 40.22689 19.02454 34057 ft 384 kts 306°
2026-05-07 19:42 40.26663 18.97763 34058 ft 392 kts 313°
2026-05-07 19:43 40.30980 18.93382 34055 ft 392 kts 313°
2026-05-07 19:43 40.35281 18.89005 34055 ft 391 kts 313°
2026-05-07 19:44 40.39575 18.84615 34059 ft 391 kts 312°
2026-05-07 19:44 40.43860 18.80216 34061 ft 391 kts 312°
2026-05-07 19:45 40.48141 18.75813 34065 ft 391 kts 312°
2026-05-07 19:45 40.52424 18.71415 34065 ft 390 kts 312°
2026-05-07 19:46 40.56671 18.67049 34064 ft 390 kts 312°
2026-05-07 19:46 40.60942 18.62643 34061 ft 390 kts 311°
2026-05-07 19:47 40.65208 18.58236 34056 ft 390 kts 311°
2026-05-07 19:47 40.69476 18.53822 34050 ft 390 kts 311°
2026-05-07 19:48 40.73752 18.49401 34048 ft 391 kts 311°
2026-05-07 19:48 40.78022 18.44966 34046 ft 391 kts 311°
2026-05-07 19:49 40.82290 18.40530 34046 ft 391 kts 311°
2026-05-07 19:49 40.86573 18.36070 34044 ft 392 kts 311°
2026-05-07 19:50 40.90857 18.31596 34039 ft 392 kts 311°
2026-05-07 19:50 40.95145 18.27119 34040 ft 393 kts 311°
2026-05-07 19:51 40.99436 18.22629 34035 ft 394 kts 311°
2026-05-07 19:51 41.03733 18.18119 34038 ft 394 kts 311°
2026-05-07 19:52 41.08035 18.13598 34040 ft 395 kts 312°
2026-05-07 19:52 41.12346 18.09059 34039 ft 396 kts 312°
2026-05-07 19:53 41.16658 18.04507 34038 ft 397 kts 312°
2026-05-07 19:53 41.20986 17.99936 34026 ft 398 kts 312°
2026-05-07 19:54 41.25323 17.95343 34033 ft 399 kts 313°
2026-05-07 19:54 41.29650 17.90775 34026 ft 401 kts 313°
2026-05-07 19:55 41.34014 17.86148 34027 ft 402 kts 313°
2026-05-07 19:55 41.38392 17.81494 34029 ft 403 kts 313°
2026-05-07 19:56 41.42786 17.76809 34034 ft 405 kts 313°
2026-05-07 19:56 41.47194 17.72111 34034 ft 406 kts 313°
2026-05-07 19:57 41.51606 17.67391 34032 ft 407 kts 313°
2026-05-07 19:57 41.56021 17.62649 34037 ft 408 kts 313°
2026-05-07 19:58 41.60455 17.57891 34039 ft 409 kts 313°
2026-05-07 19:58 41.64927 17.53178 34038 ft 411 kts 314°
2026-05-07 19:59 41.69507 17.48573 34038 ft 412 kts 315°
2026-05-07 19:59 41.74104 17.43972 34041 ft 412 kts 315°
2026-05-07 20:00 41.78651 17.39359 34043 ft 412 kts 315°
2026-05-07 20:00 41.83214 17.34692 34044 ft 412 kts 315°
2026-05-07 20:01 41.87768 17.30022 34051 ft 412 kts 315°
2026-05-07 20:01 41.92322 17.25349 34064 ft 412 kts 315°
2026-05-07 20:02 41.96910 17.20720 34061 ft 413 kts 316°
2026-05-07 20:02 42.01539 17.16159 34061 ft 413 kts 316°
2026-05-07 20:03 42.06157 17.11592 34057 ft 412 kts 316°
2026-05-07 20:03 42.10756 17.06994 34064 ft 411 kts 316°
2026-05-07 20:04 42.15347 17.02392 34063 ft 411 kts 317°
2026-05-07 20:04 42.19907 16.97819 34052 ft 411 kts 317°
2026-05-07 20:05 42.24499 16.93217 34057 ft 411 kts 317°
2026-05-07 20:05 42.29080 16.88610 34058 ft 411 kts 317°
2026-05-07 20:06 42.33656 16.83989 34059 ft 410 kts 317°
2026-05-07 20:06 42.38228 16.79359 34058 ft 410 kts 317°
2026-05-07 20:07 42.42796 16.74732 34062 ft 410 kts 316°
2026-05-07 20:07 42.47373 16.70092 34059 ft 410 kts 316°
2026-05-07 20:08 42.51938 16.65460 34056 ft 410 kts 316°
2026-05-07 20:08 42.56506 16.60803 34054 ft 411 kts 316°
2026-05-07 20:09 42.61072 16.56136 34051 ft 411 kts 316°
2026-05-07 20:10 42.67936 16.49132 34045 ft 412 kts 316°
2026-05-07 20:10 42.72516 16.44435 34049 ft 413 kts 315°
2026-05-07 20:11 42.77068 16.39740 34046 ft 413 kts 315°
2026-05-07 20:11 42.81661 16.35005 34046 ft 414 kts 315°
2026-05-07 20:12 42.86268 16.30275 34049 ft 415 kts 315°
2026-05-07 20:12 42.90879 16.25537 34057 ft 415 kts 315°
2026-05-07 20:13 42.95490 16.20773 34059 ft 416 kts 315°
2026-05-07 20:13 43.00093 16.15993 34057 ft 416 kts 315°
2026-05-07 20:14 43.04732 16.11169 34057 ft 416 kts 315°
2026-05-07 20:14 43.09321 16.06399 34063 ft 417 kts 315°
2026-05-07 20:15 43.13927 16.01597 34063 ft 416 kts 315°
2026-05-07 20:15 43.18538 15.96783 34063 ft 416 kts 314°
2026-05-07 20:16 43.23144 15.91966 34067 ft 416 kts 314°
2026-05-07 20:16 43.27743 15.87135 34072 ft 416 kts 314°
2026-05-07 20:17 43.32333 15.82309 34076 ft 416 kts 314°
2026-05-07 20:17 43.36921 15.77478 34081 ft 415 kts 314°
2026-05-07 20:18 43.41497 15.72654 34079 ft 414 kts 314°
2026-05-07 20:18 43.45293 15.68643 34082 ft 414 kts 314°
2026-05-07 20:19 43.49852 15.63822 34084 ft 413 kts 313°
2026-05-07 20:19 43.54401 15.58999 34075 ft 412 kts 313°
2026-05-07 20:20 43.58935 15.54176 34077 ft 411 kts 313°
2026-05-07 20:20 43.63463 15.49353 34084 ft 411 kts 313°
2026-05-07 20:21 43.67982 15.44535 34090 ft 410 kts 313°
2026-05-07 20:21 43.72487 15.39714 34091 ft 409 kts 313°
2026-05-07 20:22 43.76985 15.34891 34089 ft 409 kts 313°
2026-05-07 20:22 43.81481 15.30069 34097 ft 409 kts 313°
2026-05-07 20:23 43.85974 15.25251 34095 ft 408 kts 314°
2026-05-07 20:23 43.90460 15.20427 34098 ft 408 kts 314°
2026-05-07 20:24 43.94919 15.15561 34098 ft 406 kts 312°
2026-05-07 20:24 43.99150 15.10491 34099 ft 404 kts 310°
2026-05-07 20:25 44.03316 15.05256 34098 ft 403 kts 310°
2026-05-07 20:25 44.07499 15.00042 34099 ft 404 kts 311°
2026-05-07 20:26 44.11726 14.94861 34092 ft 404 kts 311°
2026-05-07 20:26 44.15952 14.89688 34081 ft 405 kts 311°
2026-05-07 20:27 44.20170 14.84500 34073 ft 405 kts 311°
2026-05-07 20:27 44.24386 14.79292 34067 ft 405 kts 311°
2026-05-07 20:28 44.28608 14.74063 34067 ft 405 kts 311°
2026-05-07 20:28 44.32820 14.68841 34077 ft 405 kts 311°
2026-05-07 20:29 44.37031 14.63617 34072 ft 405 kts 311°
2026-05-07 20:29 44.41242 14.58382 34076 ft 405 kts 311°
2026-05-07 20:30 44.45454 14.53130 34075 ft 405 kts 311°
2026-05-07 20:30 44.49659 14.47873 34067 ft 406 kts 311°
2026-05-07 20:31 44.53841 14.42633 34065 ft 406 kts 311°
2026-05-07 20:31 44.57997 14.37289 34065 ft 404 kts 308°
2026-05-07 20:32 44.61860 14.31602 34063 ft 401 kts 306°
2026-05-07 20:32 44.65606 14.25795 34064 ft 401 kts 306°
2026-05-07 20:33 44.69395 14.20013 34067 ft 402 kts 306°
2026-05-07 20:33 44.73224 14.14266 34069 ft 402 kts 307°
2026-05-07 20:34 44.77050 14.08517 34072 ft 402 kts 306°
2026-05-07 20:34 44.80872 14.02748 34071 ft 402 kts 306°
2026-05-07 20:35 44.84687 13.96972 34068 ft 403 kts 306°
2026-05-07 20:35 44.88501 13.91189 34073 ft 403 kts 307°
2026-05-07 20:36 44.92311 13.85397 34073 ft 403 kts 306°
2026-05-07 20:36 44.96115 13.79599 34072 ft 402 kts 307°
2026-05-07 20:37 44.99928 13.73794 34073 ft 402 kts 306°
2026-05-07 20:37 45.03704 13.68024 34066 ft 402 kts 306°
2026-05-07 20:38 45.07494 13.62208 34070 ft 402 kts 306°
2026-05-07 20:38 45.11280 13.56383 34066 ft 402 kts 306°
2026-05-07 20:39 45.15062 13.50559 34051 ft 401 kts 306°
2026-05-07 20:39 45.18840 13.44738 34054 ft 401 kts 306°
2026-05-07 20:40 45.22552 13.38842 34056 ft 400 kts 305°
2026-05-07 20:40 45.26190 13.32874 34056 ft 399 kts 305°
2026-05-07 20:41 45.29821 13.26908 34050 ft 399 kts 305°
2026-05-07 20:41 45.33828 13.21360 34040 ft 405 kts 312°
2026-05-07 20:42 45.38052 13.16075 34039 ft 405 kts 312°
2026-05-07 20:42 45.42271 13.10771 34029 ft 405 kts 312°
2026-05-07 20:43 45.46485 13.05446 34030 ft 405 kts 312°
2026-05-07 20:43 45.50704 13.00112 34029 ft 405 kts 312°
2026-05-07 20:44 45.54920 12.94774 34034 ft 405 kts 312°
2026-05-07 20:44 45.59128 12.89426 34034 ft 405 kts 312°
2026-05-07 20:45 45.63311 12.84089 34034 ft 406 kts 312°
2026-05-07 20:45 45.67520 12.78711 34040 ft 406 kts 312°
2026-05-07 20:46 45.71730 12.73326 34043 ft 405 kts 312°
2026-05-07 20:46 45.75937 12.67940 34043 ft 405 kts 312°
2026-05-07 20:47 45.80134 12.62553 34050 ft 405 kts 312°
2026-05-07 20:47 45.84516 12.57423 34045 ft 410 kts 319°
2026-05-07 20:48 45.89230 12.52776 34055 ft 411 kts 320°
2026-05-07 20:48 45.93940 12.48180 34057 ft 411 kts 319°
2026-05-07 20:49 45.98653 12.43532 34057 ft 410 kts 319°
2026-05-07 20:49 46.03346 12.38859 34051 ft 411 kts 319°
2026-05-07 20:50 46.08045 12.34161 34055 ft 411 kts 319°
2026-05-07 20:50 46.12745 12.29470 34054 ft 411 kts 319°
2026-05-07 20:51 46.17451 12.24779 34054 ft 411 kts 319°
2026-05-07 20:51 46.22151 12.20079 34061 ft 411 kts 319°
2026-05-07 20:52 46.26848 12.15362 34059 ft 410 kts 319°
2026-05-07 20:52 46.31529 12.10644 34061 ft 410 kts 319°
2026-05-07 20:53 46.36209 12.05924 34053 ft 410 kts 319°
2026-05-07 20:53 46.40890 12.01196 34049 ft 410 kts 319°
2026-05-07 20:54 46.45572 11.96457 34060 ft 410 kts 319°
2026-05-07 20:54 46.50211 11.91742 34071 ft 410 kts 319°
2026-05-07 20:55 46.54881 11.86984 34073 ft 410 kts 319°
2026-05-07 20:55 46.59555 11.82233 34072 ft 410 kts 319°
2026-05-07 20:56 46.64062 11.77646 34068 ft 410 kts 319°
2026-05-07 20:56 46.68730 11.72863 34067 ft 410 kts 319°
2026-05-07 20:57 46.73397 11.68069 34070 ft 410 kts 319°
2026-05-07 20:57 46.78057 11.63286 34064 ft 409 kts 319°
2026-05-07 20:58 46.82710 11.58491 34068 ft 409 kts 319°
2026-05-07 20:58 46.87334 11.53707 34073 ft 409 kts 319°
2026-05-07 20:59 46.91982 11.48892 34060 ft 408 kts 319°
2026-05-07 20:59 46.96623 11.44081 34062 ft 409 kts 319°
2026-05-07 21:00 47.01269 11.39257 34069 ft 409 kts 319°
2026-05-07 21:00 47.05908 11.34419 34065 ft 409 kts 319°
2026-05-07 21:01 47.09767 11.30397 34072 ft 410 kts 319°
2026-05-07 21:01 47.14420 11.25551 34080 ft 410 kts 319°
2026-05-07 21:02 47.19832 11.19882 34079 ft 410 kts 319°
2026-05-07 21:02 47.23728 11.15786 34079 ft 411 kts 319°
2026-05-07 21:03 47.28349 11.10920 34081 ft 411 kts 319°
2026-05-07 21:03 47.30267 11.08901 33896 ft 410 kts 319°
2026-05-07 21:03 47.32593 11.06451 33136 ft 412 kts 320°
2026-05-07 21:03 47.34924 11.03996 32525 ft 410 kts 320°
2026-05-07 21:04 47.37238 11.01550 32139 ft 408 kts 320°
2026-05-07 21:04 47.39536 10.99115 31756 ft 406 kts 320°
2026-05-07 21:04 47.41831 10.96684 31372 ft 404 kts 320°
2026-05-07 21:04 47.44109 10.94270 30991 ft 402 kts 320°
2026-05-07 21:05 47.46371 10.91872 30623 ft 399 kts 320°
2026-05-07 21:05 47.48622 10.89479 30251 ft 397 kts 320°
2026-05-07 21:05 47.50854 10.87098 29836 ft 394 kts 321°
2026-05-07 21:05 47.53072 10.84726 29409 ft 393 kts 321°
2026-05-07 21:06 47.55280 10.82363 28973 ft 391 kts 321°
2026-05-07 21:06 47.57479 10.80011 28561 ft 389 kts 321°
2026-05-07 21:06 47.59673 10.77668 28150 ft 387 kts 321°
2026-05-07 21:06 47.61848 10.75342 27744 ft 385 kts 321°
2026-05-07 21:07 47.64019 10.73017 27345 ft 383 kts 321°
2026-05-07 21:07 47.66177 10.70706 26953 ft 382 kts 321°
2026-05-07 21:07 47.68326 10.68400 26561 ft 381 kts 321°
2026-05-07 21:07 47.70465 10.66102 26180 ft 379 kts 321°
2026-05-07 21:08 47.72597 10.63811 25800 ft 378 kts 321°
2026-05-07 21:08 47.74723 10.61527 25427 ft 377 kts 321°
2026-05-07 21:08 47.76844 10.59248 25059 ft 375 kts 321°
2026-05-07 21:08 47.78731 10.57213 24729 ft 374 kts 321°
2026-05-07 21:09 47.80582 10.55212 24416 ft 373 kts 321°
2026-05-07 21:09 47.82678 10.52946 24062 ft 372 kts 321°
2026-05-07 21:09 47.84764 10.50687 23720 ft 370 kts 321°
2026-05-07 21:09 47.86845 10.48430 23318 ft 369 kts 321°
2026-05-07 21:10 47.88914 10.46182 22895 ft 367 kts 321°
2026-05-07 21:10 47.90972 10.43946 22496 ft 365 kts 321°
2026-05-07 21:10 47.93024 10.41715 22100 ft 363 kts 321°
2026-05-07 21:10 47.95063 10.39501 21708 ft 361 kts 321°
2026-05-07 21:11 47.97086 10.37304 21319 ft 359 kts 321°
2026-05-07 21:11 47.99100 10.35112 20932 ft 357 kts 321°
2026-05-07 21:11 48.03099 10.30753 20171 ft 353 kts 321°
2026-05-07 21:12 48.05078 10.28592 19802 ft 352 kts 321°
2026-05-07 21:12 48.07053 10.26436 19435 ft 350 kts 321°
2026-05-07 21:12 48.09013 10.24290 19069 ft 349 kts 321°
2026-05-07 21:12 48.10967 10.22147 18708 ft 347 kts 321°
2026-05-07 21:13 48.12887 10.20040 18351 ft 345 kts 321°
2026-05-07 21:13 48.14823 10.17912 17941 ft 343 kts 321°
2026-05-07 21:13 48.16744 10.15801 17452 ft 342 kts 321°
2026-05-07 21:13 48.18657 10.13697 16974 ft 341 kts 321°
2026-05-07 21:14 48.20561 10.11600 16507 ft 339 kts 321°
2026-05-07 21:14 48.22458 10.09509 16048 ft 338 kts 321°
2026-05-07 21:14 48.24347 10.07425 15597 ft 336 kts 321°
2026-05-07 21:14 48.26230 10.05344 15148 ft 335 kts 321°
2026-05-07 21:15 48.28101 10.03274 14707 ft 334 kts 321°
2026-05-07 21:15 48.29967 10.01210 14274 ft 332 kts 321°
2026-05-07 21:15 48.31825 9.99152 13838 ft 332 kts 321°
2026-05-07 21:15 48.33687 9.97090 13353 ft 330 kts 321°
2026-05-07 21:16 48.35513 9.95063 12876 ft 329 kts 321°
2026-05-07 21:16 48.37352 9.93022 12412 ft 328 kts 321°
2026-05-07 21:16 48.39185 9.90988 11949 ft 326 kts 321°
2026-05-07 21:16 48.41003 9.88967 11486 ft 322 kts 321°
2026-05-07 21:17 48.42779 9.86990 11043 ft 312 kts 321°
2026-05-07 21:17 48.44505 9.85068 10595 ft 307 kts 321°
2026-05-07 21:17 48.46212 9.83165 10148 ft 304 kts 320°
2026-05-07 21:17 48.47890 9.81289 9695 ft 297 kts 320°
2026-05-07 21:18 48.49526 9.79459 9215 ft 289 kts 321°
2026-05-07 21:18 48.51124 9.77670 8743 ft 282 kts 321°
2026-05-07 21:18 48.52672 9.75933 8465 ft 276 kts 321°
2026-05-07 21:18 48.54220 9.74196 8209 ft 276 kts 321°
2026-05-07 21:19 48.55756 9.72472 7949 ft 275 kts 321°
2026-05-07 21:19 48.57295 9.70749 7698 ft 275 kts 321°
2026-05-07 21:19 48.58831 9.69033 7445 ft 274 kts 321°
2026-05-07 21:19 48.60356 9.67325 7200 ft 273 kts 321°
2026-05-07 21:20 48.61880 9.65611 6952 ft 273 kts 321°
2026-05-07 21:20 48.63383 9.63918 6704 ft 272 kts 322°
2026-05-07 21:20 48.64900 9.62210 6457 ft 272 kts 322°
2026-05-07 21:20 48.66397 9.60524 6183 ft 263 kts 322°
2026-05-07 21:21 48.67833 9.58908 5930 ft 252 kts 323°
2026-05-07 21:21 48.69339 9.57644 5662 ft 244 kts 338°
2026-05-07 21:21 48.70942 9.56891 5329 ft 239 kts 338°
2026-05-07 21:21 48.72338 9.55690 5153 ft 221 kts 318°
2026-05-07 21:22 48.73312 9.54029 5035 ft 203 kts 301°
2026-05-07 21:22 48.73881 9.52131 4892 ft 193 kts 285°
2026-05-07 21:22 48.74064 9.50177 4690 ft 186 kts 269°
2026-05-07 21:22 48.73885 9.48259 4445 ft 184 kts 253°
2026-05-07 21:23 48.73537 9.46410 4210 ft 178 kts 254°
2026-05-07 21:23 48.73208 9.44643 4001 ft 170 kts 254°
2026-05-07 21:23 48.72891 9.42944 3751 ft 166 kts 254°
2026-05-07 21:23 48.72578 9.41271 3531 ft 164 kts 254°
2026-05-07 21:24 48.72267 9.39611 3306 ft 164 kts 254°
2026-05-07 21:24 48.71960 9.37977 3095 ft 163 kts 254°
2026-05-07 21:24 48.71659 9.36371 2870 ft 154 kts 254°
2026-05-07 21:24 48.71369 9.34832 2659 ft 151 kts 254°
2026-05-07 21:25 48.71083 9.33309 2467 ft 150 kts 254°
2026-05-07 21:25 48.70797 9.31790 2249 ft 149 kts 254°
2026-05-07 21:25 48.70514 9.30288 2049 ft 148 kts 254°
2026-05-07 21:25 48.70233 9.28794 1834 ft 147 kts 254°
2026-05-07 21:26 48.69953 9.27312 1634 ft 146 kts 254°
2026-05-07 21:26 48.69673 9.25835 1448 ft 145 kts 254°
2026-05-07 21:26 48.69400 9.24370 1310 ft 144 kts 254°
2026-05-07 21:26 48.69147 9.23031 1289 ft 108 kts 254°
2026-05-07 21:27 48.68992 9.22198 1285 ft 60 kts 255°
2026-05-07 21:27 48.68903 9.21732 1290 ft 41 kts 253°
2026-05-07 21:27 48.68817 9.21303 1290 ft 36 kts 255°
2026-05-07 21:27 48.68829 9.21027 1285 ft 22 kts 282°
2026-05-07 21:28 48.68840 9.20956 1285 ft 2 kts 283°
2026-05-07 21:28 48.68840 9.20955 1285 ft 0 kts 283°
2026-05-07 21:29 48.68842 9.20939 1285 ft 4 kts 283°
2026-05-07 21:29 48.68854 9.20867 1285 ft 10 kts 284°
2026-05-07 21:29 48.68875 9.20745 1285 ft 12 kts 283°
2026-05-07 21:29 48.68859 9.20593 1290 ft 18 kts 252°
2026-05-07 21:30 48.68822 9.20403 1285 ft 17 kts 257°
2026-05-07 21:30 48.68785 9.20203 1289 ft 11 kts 254°
2026-05-07 21:30 48.68760 9.20069 1285 ft 13 kts 256°
2026-05-07 21:30 48.68778 9.19979 1289 ft 2 kts 307°
2026-05-07 21:31 48.68799 9.19942 1287 ft 8 kts 314°
2026-05-07 21:31 48.68856 9.19879 1287 ft 8 kts 331°
2026-05-07 21:31 48.68887 9.19829 1287 ft 6 kts 286°
2026-05-07 21:31 48.68878 9.19761 1285 ft 7 kts 252°
2026-05-07 21:32 48.68861 9.19681 1285 ft 9 kts 252°
2026-05-07 21:32 48.68851 9.19631 1286 ft 1 kts 252°
2026-05-07 21:32 48.68851 9.19616 1285 ft 1 kts 282°
2026-05-07 21:32 48.68864 9.19600 1289 ft 0 kts 334°
2026-05-07 21:33 48.68878 9.19599 1285 ft 5 kts 353°
2026-05-07 21:33 48.68900 9.19592 1287 ft 2 kts 347°
2026-05-07 21:33 48.68912 9.19587 1288 ft 0 kts 344°